Weather History for Al Hoceima, Morocco

Change the Weather History Date:

Friday, February 22, 2013

  Actual Average Record
Temperature  
Mean Temperature 66 °F -  
Max Temperature 77 °F 62 °F 77 °F (2013)
Min Temperature 54 °F 48 °F 41 °F (2012)
Growing Degree Days 16 (Base 50)    
Moisture  
Dew Point 49 °F    
Average Humidity 50    
Maximum Humidity 67    
Minimum Humidity 31    
Precipitation  
Precipitation 0.00 in - - ()
Sea Level Pressure  
Sea Level Pressure 29.84 in    
Wind  
Wind Speed 7 mph ()    
Max Wind Speed 24 mph    
Max Gust Speed 29 mph    
Visibility 6.6 miles    
Events      
Averages and records for this station are not official NWS values.
T = Trace of Precipitation, MM = Missing Value Source: Averaged Metar Reports

Daily Weather History Graph

Daily Weather History Graph

Search for Another Location

Airport:

Trip Planner

Search our weather history database for the weather conditions in past years. The results will help you decide how hot, cold, wet, or windy it might be!

Date:

Astronomy

Feb. 22, 2013 Rise Set
Actual Time 6:53 AM WET 6:04 PM WET
Civil Twilight 6:27 AM WET 6:30 PM WET
Nautical Twilight 5:58 AM WET 6:59 PM WET
Astronomical Twilight 5:29 AM WET 7:29 PM WET
Moon 3:06 PM WET (2/22) 4:24 AM WET (2/22)
Length of Visible Light 12h 02m
Length of Day
11h 11m
Waxing Gibbous, 89% of the Moon is Illuminated
Feb 22
Waxing Gibbous
Feb 25
Full
Mar 4
Last Quarter
Mar 11
New
Mar 19
First Quarter

Hourly Weather History & Observations

Time (WET) Temp. Dew Point Humidity Pressure Visibility Wind Dir Wind Speed Gust Speed Precip Events Conditions
6:00 AM 56 °F 46 °F 61% 29.91 in 9 mi SSE 4.6 mph - -   Partly Cloudy
6:00 AM 57.2 °F 46.4 °F 67% 29.89 in 6.2 mi SSE 4.6 mph - N/A   Scattered Clouds
7:00 AM 57.2 °F 46.4 °F 67% 29.89 in 6.2 mi SSE 4.6 mph - N/A   Partly Cloudy
8:00 AM 66.2 °F 51.8 °F 60% 29.89 in 6.2 mi West 4.6 mph - N/A   Partly Cloudy
9:00 AM 71 °F 51 °F 37% 29.91 in 9 mi SW 2.3 mph - -   Partly Cloudy
9:00 AM 71.6 °F 50.0 °F 46% 29.89 in 6.2 mi SW 2.3 mph - N/A   Partly Cloudy
10:00 AM 71.6 °F 50.0 °F 46% 29.89 in 6.2 mi West 13.8 mph - N/A   Partly Cloudy
11:00 AM 75.2 °F 48.2 °F 38% 29.89 in 6.2 mi SW 16.1 mph 28.8 mph N/A   Partly Cloudy
12:00 PM 72 °F 48 °F 31% 29.88 in 9 mi West 6.9 mph - -   Partly Cloudy
12:00 PM 71.6 °F 48.2 °F 43% 29.86 in 6.2 mi West 6.9 mph - N/A   Scattered Clouds
1:00 PM 69.8 °F 48.2 °F 46% 29.86 in 6.2 mi West 11.5 mph - N/A   Scattered Clouds
2:00 PM 69.8 °F 48.2 °F 46% 29.83 in 6.2 mi West 16.1 mph 28.8 mph N/A   Mostly Cloudy
3:00 PM 70 °F 49 °F 36% 29.83 in 6 mi West 11.5 mph - -   Mostly Cloudy
3:00 PM 69.8 °F 48.2 °F 46% 29.83 in 6.2 mi West 11.5 mph - N/A   Scattered Clouds
4:00 PM 71.6 °F 48.2 °F 43% 29.77 in 6.2 mi WSW 6.9 mph - N/A   Mostly Cloudy
5:00 PM 68.0 °F 50.0 °F 52% 29.77 in 6.2 mi West 6.9 mph - N/A   Mostly Cloudy
6:00 PM 65 °F 50 °F 48% 29.78 in 6 mi SW 4.6 mph - -   Partly Cloudy
6:00 PM 64.4 °F 50.0 °F 59% 29.77 in 6.2 mi SW 4.6 mph - N/A   Mostly Cloudy
7:00 PM 66.2 °F 48.2 °F 52% 29.77 in 6.2 mi West 6.9 mph - N/A   Mostly Cloudy
8:00 PM 66.2 °F 48.2 °F 52% 29.77 in 6.2 mi West 6.9 mph - N/A   Mostly Cloudy
9:00 PM 62 °F 51 °F 57% 29.81 in 6 mi NW 24.2 mph - -   Partly Cloudy
9:00 PM 62.6 °F 50.0 °F 63% 29.80 in 6.2 mi NW 24.2 mph - N/A   Mostly Cloudy